Regional Weather Roundup
Issued by NWS

Home | Current Version | Previous Version | Text Only | Print | Product List | Glossary Off
Versions: 1 2 3 4 5 6 7 8 9 10 11 12 13 14 15 16 17 18 19 20 21 22 23 24 25 26 27 28 29 30 31 32 33 34 35 36 37 38 39 40 41 42 43 44 45 46 47 48 49 50

000
ASUS43 KLOT 240403
RWRIL

ILLINOIS REGIONAL WEATHER ROUNDUP
NATIONAL WEATHER SERVICE CHICAGO/ROMEOVILLE IL
1100 PM CDT THU MAR 23 2017

NOTE: "FAIR" INDICATES FEW OR NO CLOUDS BELOW 12,000 FEET WITH NO
SIGNIFICANT WEATHER AND/OR OBSTRUCTIONS TO VISIBILITY.

* THESE STATIONS ARE NOT UNDER NWS QUALITY CONTROL. THEY ALSO MAY NOT
  REPORT WEATHER SUCH AS PRECIPITATION OR FOG.

ILZ001-002-007-009-015-016-024-240500-
NORTHWEST ILLINOIS

CITY           SKY/WX    TMP DP  RH WIND       PRES   REMARKS
MOLINE         PTCLDY    46  38  73 SE7       29.91F
STERLING*      PTCLDY    42  35  76 SE6       29.96F
SAVANNA*       CLOUDY    42  33  70 E7        29.96R
$$

ILZ003-004-008-010-011-017-018-240500-
NORTH CENTRAL ILLINOIS

CITY           SKY/WX    TMP DP  RH WIND       PRES   REMARKS
ROCKFORD       CLOUDY    45  33  63 SE7       30.02R
FREEPORT*      CLOUDY    42  32  70 SE8       30.00R
ROCHELLE*      PTCLDY    44  33  65 SE15      29.99F
DE KALB*       PTCLDY    44  32  63 SE13      30.01R
PERU*          PTCLDY    43  33  68 S12G18    29.99S
$$

ILZ005-006-012>014-019>023-240500-
NORTHEAST ILLINOIS

CITY           SKY/WX    TMP DP  RH WIND       PRES   REMARKS
CHICAGO-OHARE  MOCLDY    46  32  58 S7        30.02F
CHICAGO-MIDWAY CLOUDY    51  32  48 S9        30.02F
AURORA         PTCLDY    47  33  58 SE10      30.01F
LANSING*       PTCLDY    47  34  59 S12G17    30.03S
JOLIET*        PTCLDY    49  34  55 S9        30.01F
WAUKEGAN       PTCLDY    40  35  83 SE6       30.02F
DUPAGE AIRPORT MOCLDY    45  32  60 S6        30.01S
WHEELING       CLOUDY    46  33  60 S7        30.03F
MORRIS*        CLOUDY    46  33  60 S14G21    30.00R
NORTHERLY ISL    N/A     50  29  44 S10         N/A
$$

LMZ740>746-240500-
SOUTHERN LAKE MICHIGAN

STATION/POSITION SKY/WX   TEMP    WIND        PRES    VSBY  WAVE
                          AIR SEA DIR/SP/G                  HT/PER
                          (F)     (DEG/KT/KT) (MB)    (MI)  (FT/S)
HARRISON CRIB              46     170/  9/ 10   N/A
BURNHAM HARBOR             49     160/  8/ 12   N/A
CALUMET HARBOR             50     170/  9/ 14 1016.1F
BURNS HARBOR               50     180/ 15/ 23 1017.3R
MICHIGAN CITY              50     150/ 17/ 23   N/A
$$

ILZ025>027-034>036-040-047-049-050-058-095>099-240500-
WEST-CENTRAL ILLINOIS

CITY           SKY/WX    TMP DP  RH WIND       PRES   REMARKS
QUINCY         CLEAR     57  43  59 S13       29.90S
GALESBURG*     CLOUDY    46  40  81 SE13G20   29.90S
MACOMB*        CLOUDY    45  42  89 SE10      29.94S
JACKSONVILLE*  CLEAR     53  42  68 S15G21    29.96R
PITTSFIELD*    CLEAR     60  46  60 S18G24    29.93F
$$

ILZ028>032-037-038-041>044-048-051>054-059>061-240500-
CENTRAL ILLINOIS

CITY           SKY/WX    TMP DP  RH WIND       PRES   REMARKS
PONTIAC        PTCLDY    46  35  65 S22G31    29.99F
BLOOMINGTON    CLEAR     45  36  70 S25G32    29.99F
DECATUR        CLEAR     47  38  71 S17G26    30.03F
PEORIA         PTCLDY    47  39  74 S17G25    29.96F
SPRINGFIELD    CLEAR     49  41  74 S18       29.99S
TAYLORVILLE    NOT AVBL
$$

ILZ033-039-045-046-055>057-062-063-240500-
EAST-CENTRAL ILLINOIS

CITY           SKY/WX    TMP DP  RH WIND       PRES   REMARKS
CHAMPAIGN      CLEAR     49  35  58 S21       30.04F
RANTOUL*       CLEAR     48  37  65 S18       30.04F
MATTOON        CLEAR     48  39  71 S16       30.06F
PARIS*         CLEAR     50  37  62 S17       30.09F
$$

ILZ079-100>102-240500-
SOUTHWEST ILLINOIS

CITY           SKY/WX    TMP DP  RH WIND       PRES   REMARKS
BELLEVILLE     CLEAR     51  44  77 SE12      30.02F
CAHOKIA*       CLEAR     54  42  64 S7        30.01F
SPARTA*        CLEAR     51  43  74 SE8       30.05F
$$

ILZ064>066-069>071-074>076-080>082-084>086-088>090-092>094-240500-
SOUTH-CENTRAL ILLINOIS

CITY           SKY/WX    TMP DP  RH WIND       PRES   REMARKS
CARBONDALE     CLEAR     49  43  80 SE6       30.06F
CAIRO*         CLEAR     55  46  71 SE6       30.08F
EFFINGHAM*     CLEAR     47  42  80 SE10      30.09F
MARION         CLEAR     50  45  81 SE6       30.08F
CENTRALIA*     CLEAR     50  43  77 SE12      30.05S
SALEM*         CLEAR     50  42  73 SE8       30.06F
$$

ILZ067-068-072-073-078-083-087-091-240500-
SOUTHEAST ILLINOIS

CITY           SKY/WX    TMP DP  RH WIND       PRES   REMARKS
LAWRENCEVILLE  CLEAR     50  40  68 S12       30.12F
FLORA*         CLEAR     46  41  82 SE9       30.09F
FAIRFIELD*     CLEAR     49  42  78 SE5       30.09S
HARRISBURG*    CLEAR     49  44  83 SE5       30.09F
ROBINSON*      CLEAR     47  38  69 SE8       30.12F
CARMI*         CLEAR     47  42  85 SE8       30.10F
$$

ABBREVIATIONS USED IN REMARKS
   TC - TEMPERATURE IN CELSIUS
  WCI - WIND CHILL INDEX
   HX - HEAT INDEX
  VSB - VISIBILITY
$$




USA.gov is the U.S. government's official web portal to all federal, state and local government web resources and services.